• In Italy
  • List of Countries
  • For 7 days
  • Water Temperature
  • Satellite Maps
  • Weather Map
  • Weather Widgets
  • user-avatar
    Login

    Hourly Weather Akka

    Today, 19 November, Sunday

    Time Temperature Precipitation Wind Pressure Humidity
    00:00 +24°C° 0 mm 2 mps 758 mmHg 42%
    01:00 +22°C° 0 mm 3 mps 758 mmHg 47%
    02:00 +22°C° 0 mm 4 mps 758 mmHg 49%
    03:00 +22°C° 0.1 mm 4 mps 758 mmHg 55%
    04:00 +21°C° 0.1 mm 4 mps 758 mmHg 60%
    05:00 +21°C° 0.1 mm 3 mps 758 mmHg 66%
    06:00 +21°C° 0 mm 3 mps 759 mmHg 69%
    07:00 +22°C° 0 mm 3 mps 759 mmHg 71%
    08:00 +22°C° 0 mm 3 mps 759 mmHg 73%
    09:00 +24°C° 0 mm 3 mps 759 mmHg 69%
    10:00 +25°C° 0 mm 3 mps 760 mmHg 65%
    11:00 +25°C° 0 mm 3 mps 760 mmHg 62%
    12:00 +25°C° 0 mm 4 mps 760 mmHg 61%
    13:00 +25°C° 0 mm 4 mps 760 mmHg 60%
    14:00 +25°C° 0 mm 4 mps 760 mmHg 59%
    15:00 +25°C° 0 mm 4 mps 760 mmHg 62%
    16:00 +24°C° 0 mm 3 mps 760 mmHg 65%
    17:00 +22°C° 0 mm 3 mps 760 mmHg 68%
    18:00 +21°C° 0 mm 2 mps 760 mmHg 70%
    19:00 +21°C° 0 mm 2 mps 760 mmHg 73%
    20:00 +20°C° 0 mm 2 mps 760 mmHg 75%
    21:00 +20°C° 0 mm 2 mps 761 mmHg 76%
    22:00 +19°C° 0 mm 2 mps 761 mmHg 78%
    23:00 +20°C° 0 mm 1 mps 761 mmHg 79%

    Tomorrow, 20 November, Monday

    Time Temperature Precipitation Wind Pressure Humidity
    00:00 +20°C° 0 mm 1 mps 761 mmHg 79%
    01:00 +20°C° 0 mm 1 mps 761 mmHg 80%
    02:00 +19°C° 0 mm 1 mps 761 mmHg 80%
    03:00 +19°C° 0 mm 1 mps 761 mmHg 80%
    04:00 +19°C° 0 mm 1 mps 760 mmHg 80%
    05:00 +19°C° 0 mm 1 mps 760 mmHg 80%
    06:00 +19°C° 0 mm 2 mps 760 mmHg 76%
    07:00 +19°C° 0 mm 2 mps 760 mmHg 73%
    08:00 +20°C° 0 mm 2 mps 761 mmHg 69%
    09:00 +21°C° 0 mm 3 mps 760 mmHg 65%
    10:00 +22°C° 0 mm 3 mps 760 mmHg 60%
    11:00 +22°C° 0 mm 4 mps 760 mmHg 55%
    12:00 +23°C° 0.2 mm 4 mps 760 mmHg 54%
    13:00 +23°C° 0.2 mm 5 mps 759 mmHg 53%
    14:00 +23°C° 0.2 mm 6 mps 759 mmHg 52%
    15:00 +22°C° 0.4 mm 5 mps 759 mmHg 57%
    16:00 +21°C° 0.4 mm 5 mps 759 mmHg 63%
    17:00 +20°C° 0.4 mm 5 mps 759 mmHg 69%
    18:00 +20°C° 1 mm 5 mps 759 mmHg 71%
    19:00 +20°C° 1 mm 5 mps 759 mmHg 73%
    20:00 +19°C° 1 mm 4 mps 759 mmHg 76%
    21:00 +19°C° 1.2 mm 5 mps 759 mmHg 76%
    22:00 +19°C° 1.2 mm 5 mps 759 mmHg 76%
    23:00 +19°C° 1.2 mm 5 mps 758 mmHg 77%

    Day after tomorrow, 21 November, Tuesday

    Time Temperature Precipitation Wind Pressure Humidity
    00:00 +19°C° 0.7 mm 5 mps 758 mmHg 76%
    01:00 +17°C° 0.7 mm 6 mps 758 mmHg 76%
    02:00 +17°C° 0.7 mm 6 mps 758 mmHg 76%
    03:00 +17°C° 1 mm 7 mps 757 mmHg 76%
    04:00 +17°C° 1 mm 7 mps 757 mmHg 76%
    05:00 +17°C° 1 mm 8 mps 757 mmHg 76%
    06:00 +17°C° 1.3 mm 8 mps 757 mmHg 76%
    07:00 +18°C° 1.3 mm 9 mps 757 mmHg 76%
    08:00 +18°C° 1.3 mm 9 mps 757 mmHg 76%
    09:00 +18°C° 1.1 mm 10 mps 757 mmHg 76%
    10:00 +18°C° 1.1 mm 10 mps 757 mmHg 76%
    11:00 +18°C° 1.1 mm 10 mps 757 mmHg 76%
    12:00 +18°C° 0.2 mm 10 mps 757 mmHg 71%
    13:00 +18°C° 0.2 mm 10 mps 757 mmHg 65%
    14:00 +18°C° 0.2 mm 10 mps 757 mmHg 60%
    15:00 +17°C° 0.3 mm 10 mps 757 mmHg 63%
    16:00 +17°C° 0.3 mm 9 mps 757 mmHg 66%
    17:00 +16°C° 0.3 mm 8 mps 758 mmHg 68%
    18:00 +16°C° 0.3 mm 8 mps 758 mmHg 69%
    19:00 +16°C° 0.3 mm 8 mps 758 mmHg 69%
    20:00 +16°C° 0.3 mm 7 mps 758 mmHg 69%
    21:00 +16°C° 0.4 mm 7 mps 759 mmHg 70%
    22:00 +15°C° 0.4 mm 7 mps 759 mmHg 71%
    23:00 +15°C° 0.4 mm 7 mps 759 mmHg 72%

    22 November, Wednesday

    Time Temperature Precipitation Wind Pressure Humidity
    00:00 +15°C° 0.3 mm 7 mps 759 mmHg 72%
    01:00 +15°C° 0.3 mm 7 mps 759 mmHg 71%
    02:00 +15°C° 0.3 mm 7 mps 759 mmHg 71%
    03:00 +15°C° 0.3 mm 7 mps 759 mmHg 71%
    04:00 +15°C° 0.3 mm 7 mps 759 mmHg 71%
    05:00 +15°C° 0.3 mm 7 mps 759 mmHg 70%
    06:00 +16°C° 0.1 mm 7 mps 759 mmHg 67%
    07:00 +16°C° 0.1 mm 7 mps 760 mmHg 64%
    08:00 +17°C° 0.1 mm 6 mps 760 mmHg 62%
    09:00 +17°C° 0 mm 6 mps 760 mmHg 58%
    10:00 +19°C° 0 mm 6 mps 760 mmHg 55%
    11:00 +19°C° 0 mm 6 mps 760 mmHg 52%
    12:00 +19°C° 0 mm 6 mps 760 mmHg 52%
    13:00 +19°C° 0 mm 6 mps 760 mmHg 52%
    14:00 +19°C° 0 mm 6 mps 760 mmHg 53%
    15:00 +17°C° 0 mm 6 mps 760 mmHg 56%
    16:00 +17°C° 0 mm 5 mps 760 mmHg 58%
    17:00 +16°C° 0 mm 5 mps 761 mmHg 61%
    18:00 +17°C° 0 mm 4 mps 761 mmHg 62%
    19:00 +15°C° 0 mm 4 mps 761 mmHg 63%
    20:00 +16°C° 0 mm 3 mps 762 mmHg 63%
    21:00 +16°C° 0 mm 3 mps 762 mmHg 63%
    22:00 +16°C° 0 mm 3 mps 762 mmHg 63%
    23:00 +15°C° 0 mm 2 mps 762 mmHg 63%

    23 November, Thursday

    Time Temperature Precipitation Wind Pressure Humidity
    00:00 +15°C° 0 mm 2 mps 762 mmHg 63%
    01:00 +15°C° 0 mm 2 mps 762 mmHg 63%
    02:00 +15°C° 0 mm 2 mps 762 mmHg 63%
    03:00 +15°C° 0 mm 2 mps 762 mmHg 63%
    04:00 +14°C° 0 mm 2 mps 762 mmHg 63%
    05:00 +14°C° 0 mm 2 mps 762 mmHg 64%
    06:00 +15°C° 0 mm 1 mps 763 mmHg 62%
    07:00 +15°C° 0 mm 1 mps 763 mmHg 61%
    08:00 +16°C° 0 mm 1 mps 763 mmHg 59%
    09:00 +18°C° 0 mm 1 mps 763 mmHg 55%
    10:00 +19°C° 0 mm 1 mps 763 mmHg 51%
    11:00 +20°C° 0 mm 1 mps 763 mmHg 47%
    12:00 +19°C° 0 mm 2 mps 763 mmHg 46%
    13:00 +19°C° 0 mm 2 mps 763 mmHg 45%
    14:00 +20°C° 0 mm 3 mps 762 mmHg 44%
    15:00 +19°C° 0 mm 3 mps 762 mmHg 47%
    16:00 +18°C° 0 mm 3 mps 762 mmHg 50%
    17:00 +17°C° 0 mm 3 mps 763 mmHg 52%
    18:00 +17°C° 0 mm 3 mps 763 mmHg 54%
    19:00 +17°C° 0 mm 3 mps 763 mmHg 55%
    20:00 +16°C° 0 mm 3 mps 763 mmHg 56%
    21:00 +16°C° 0 mm 2 mps 763 mmHg 57%
    22:00 +16°C° 0 mm 2 mps 763 mmHg 57%
    23:00 +15°C° 0 mm 2 mps 763 mmHg 58%

    24 November, Friday

    Time Temperature Precipitation Wind Pressure Humidity
    00:00 +15°C° 0 mm 2 mps 763 mmHg 59%
    01:00 +15°C° 0 mm 2 mps 763 mmHg 59%
    02:00 +15°C° 0 mm 2 mps 763 mmHg 60%
    03:00 +15°C° 0 mm 2 mps 763 mmHg 60%
    04:00 +14°C° 0 mm 2 mps 763 mmHg 61%
    05:00 +14°C° 0 mm 2 mps 763 mmHg 62%
    06:00 +15°C° 0 mm 2 mps 764 mmHg 59%
    07:00 +16°C° 0 mm 2 mps 764 mmHg 57%
    08:00 +16°C° 0 mm 2 mps 764 mmHg 54%
    09:00 +18°C° 0 mm 1 mps 764 mmHg 50%
    10:00 +19°C° 0 mm 1 mps 764 mmHg 46%
    11:00 +21°C° 0 mm 1 mps 764 mmHg 42%
    12:00 +21°C° 0 mm 1 mps 764 mmHg 42%
    13:00 +20°C° 0 mm 2 mps 764 mmHg 42%
    14:00 +20°C° 0 mm 2 mps 763 mmHg 41%
    15:00 +20°C° 0 mm 2 mps 763 mmHg 45%
    16:00 +19°C° 0 mm 3 mps 764 mmHg 49%
    17:00 +18°C° 0 mm 3 mps 764 mmHg 52%
    18:00 +18°C° 0 mm 3 mps 764 mmHg 54%
    19:00 +17°C° 0 mm 3 mps 765 mmHg 56%
    20:00 +17°C° 0 mm 3 mps 765 mmHg 58%
    21:00 +17°C° 0 mm 3 mps 765 mmHg 58%
    22:00 +16°C° 0 mm 3 mps 765 mmHg 58%
    23:00 +16°C° 0 mm 3 mps 765 mmHg 59%
    Show more